^^
Station Historical Data
Daily Summary for January 23, 2017 Units:  English    Metric   Both
« Previous Day
Next Day »
Daily Weekly Monthly Yearly Custom
  High: Low: Average:
Temperature: 43.2 °F 38.6 °F 40.8 °F
Dew Point: 40.7 °F 32.1 °F 36.6 °F
Humidity: 91% 76% 85%
Wind Speed: 5.0mph 0.0mph 1.6mph
Wind Gust: 18.0mph - -
Wind- - South
Pressure: 29.89 in 29.83 in -
Precipitation: 0.00 in    
Historical Graphs
 
 
Tabular Data for January 23, 2017
Time Temperature Dew Point Pressure Wind Wind Speed Wind Gust Humidity Rainfall Rate (Hourly) Conditions
00:00 43.2 °F 40.7 °F 29.85 in South 1.0 mph 10.0 mph 91% 0.00 in RA
00:10 43.0 °F 40.6 °F 29.84 in ESE 3.0 mph 10.0 mph 91% 0.00 in BKN
00:20 42.9 °F 40.5 °F 29.84 in WSW 2.0 mph 9.0 mph 91% 0.00 in BKN
00:30 42.8 °F 40.4 °F 29.84 in Calm   4.0 mph 91% 0.00 in BKN
00:40 42.8 °F 40.4 °F 29.84 in SSE 1.0 mph 8.0 mph 91% 0.00 in BKN
00:50 42.8 °F 40.1 °F 29.84 in East 3.0 mph 7.0 mph 90% 0.00 in BKN
01:00 42.7 °F 40.0 °F 29.83 in NNE 1.0 mph 10.0 mph 90% 0.00 in BKN
01:10 42.8 °F 39.8 °F 29.84 in Calm   4.0 mph 89% 0.00 in BKN
01:20 42.8 °F 39.8 °F 29.85 in SSW 1.0 mph 6.0 mph 89% 0.00 in BKN
01:30 42.7 °F 39.7 °F 29.85 in NNW 1.0 mph 5.0 mph 89% 0.00 in BKN
01:40 42.8 °F 39.5 °F 29.86 in North 1.0 mph 10.0 mph 88% 0.00 in BKN
01:50 42.7 °F 39.4 °F 29.86 in Calm   10.0 mph 88% 0.00 in BKN
02:00 42.6 °F 39.0 °F 29.86 in East 2.0 mph 7.0 mph 87% 0.00 in BKN
02:10 42.6 °F 39.0 °F 29.86 in NNE 2.0 mph 10.0 mph 87% 0.00 in OVC
02:20 42.5 °F 38.9 °F 29.85 in SSW 2.0 mph 12.0 mph 87% 0.00 in OVC
02:30 42.3 °F 38.7 °F 29.85 in Calm   5.0 mph 87% 0.00 in OVC
02:40 42.2 °F 38.6 °F 29.83 in WSW 1.0 mph 6.0 mph 87% 0.00 in OVC
02:50 42.1 °F 38.5 °F 29.84 in NNW 1.0 mph 12.0 mph 87% 0.00 in OVC
03:00 41.9 °F 38.3 °F 29.84 in SSE 2.0 mph 8.0 mph 87% 0.00 in OVC
03:10 41.8 °F 38.5 °F 29.83 in WNW 2.0 mph 4.0 mph 88% 0.00 in BKN
03:20 41.7 °F 38.4 °F 29.84 in NE 2.0 mph 6.0 mph 88% 0.00 in BKN
03:30 41.6 °F 38.3 °F 29.84 in ESE 3.0 mph 7.0 mph 88% 0.00 in BKN
03:40 41.4 °F 38.1 °F 29.85 in Calm   8.0 mph 88% 0.00 in BKN
03:50 41.3 °F 38.1 °F 29.85 in ENE 3.0 mph 10.0 mph 88% 0.00 in BKN
04:00 41.3 °F 38.0 °F 29.85 in Calm   9.0 mph 88% 0.00 in BKN
04:10 41.2 °F 37.6 °F 29.86 in NNE 1.0 mph 7.0 mph 87% 0.00 in BKN
04:20 41.2 °F 37.6 °F 29.86 in SSW 1.0 mph 5.0 mph 87% 0.00 in BKN
04:30 41.1 °F 37.5 °F 29.85 in Calm   5.0 mph 87% 0.00 in BKN
04:40 41.0 °F 37.4 °F 29.86 in WNW 1.0 mph 6.0 mph 87% 0.00 in BKN
04:50 40.9 °F 37.3 °F 29.85 in ENE 5.0 mph 10.0 mph 87% 0.00 in BKN
05:00 40.8 °F 36.9 °F 29.85 in WNW 3.0 mph 9.0 mph 86% 0.00 in BKN
05:10 40.7 °F 36.8 °F 29.86 in ESE 1.0 mph 7.0 mph 86% 0.00 in BKN
05:20 40.6 °F 36.7 °F 29.86 in ESE 2.0 mph 8.0 mph 86% 0.00 in BKN
05:30 40.6 °F 36.4 °F 29.85 in ESE 1.0 mph 8.0 mph 85% 0.00 in BKN
05:40 40.5 °F 36.4 °F 29.85 in SSW 1.0 mph 5.0 mph 85% 0.00 in BKN
05:50 40.3 °F 36.2 °F 29.85 in WNW 1.0 mph 7.0 mph 85% 0.00 in BKN
06:00 40.3 °F 36.1 °F 29.86 in East 1.0 mph 7.0 mph 85% 0.00 in BKN
06:10 40.2 °F 36.1 °F 29.87 in WNW 1.0 mph 9.0 mph 85% 0.00 in BKN
06:20 40.1 °F 36.0 °F 29.86 in SSW 1.0 mph 7.0 mph 85% 0.00 in BKN
06:30 39.9 °F 35.8 °F 29.85 in Calm   5.0 mph 85% 0.00 in BKN
06:40 39.8 °F 35.7 °F 29.85 in WNW 1.0 mph 7.0 mph 85% 0.00 in BKN
06:50 39.7 °F 35.6 °F 29.86 in ENE 2.0 mph 8.0 mph 85% 0.00 in BKN
07:00 39.6 °F 35.1 °F 29.86 in WSW 2.0 mph 9.0 mph 84% 0.00 in BKN
07:10 39.4 °F 34.3 °F 29.86 in WNW 3.0 mph 12.0 mph 82% 0.00 in BKN
07:20 39.2 °F 34.2 °F 29.86 in SSE 2.0 mph 12.0 mph 82% 0.00 in BKN
07:30 39.1 °F 33.8 °F 29.87 in NNE 1.0 mph 7.0 mph 81% 0.00 in BKN
07:40 39.1 °F 33.1 °F 29.87 in NE 2.0 mph 9.0 mph 79% 0.00 in BKN
07:50 39.0 °F 33.0 °F 29.88 in SSW 3.0 mph 12.0 mph 79% 0.00 in BKN
08:00 38.9 °F 32.6 °F 29.88 in North 2.0 mph 11.0 mph 78% 0.00 in BKN
08:10 38.9 °F 32.6 °F 29.89 in NW 1.0 mph 12.0 mph 78% 0.00 in BKN
08:20 38.8 °F 32.8 °F 29.88 in Calm   11.0 mph 79% 0.00 in BKN
08:30 38.6 °F 32.6 °F 29.88 in WSW 3.0 mph 18.0 mph 79% 0.00 in BKN
08:40 38.6 °F 32.3 °F 29.88 in NNW 5.0 mph 12.0 mph 78% 0.00 in BKN
08:50 38.7 °F 32.4 °F 29.89 in NE 5.0 mph 9.0 mph 78% 0.00 in BKN
09:00 38.8 °F 32.5 °F 29.87 in SSE 2.0 mph 8.0 mph 78% 0.00 in BKN
09:10 38.8 °F 32.2 °F 29.86 in NNW 3.0 mph 9.0 mph 77% 0.00 in OVC
09:20 39.0 °F 32.4 °F 29.85 in NW 1.0 mph 7.0 mph 77% 0.00 in OVC
09:30 38.9 °F 32.3 °F 29.87 in West 2.0 mph 8.0 mph 77% 0.00 in OVC
09:40 39.0 °F 32.1 °F 29.88 in SSW 1.0 mph 11.0 mph 76% 0.00 in OVC
09:50 39.0 °F 32.1 °F 29.87 in NE 2.0 mph 12.0 mph 76% 0.00 in OVC
TarryTown NY Weather
Compliments of Weather Underground - 1.25 mb